[[{"header":{"parameterUnit":"m.s-1","parameterCategory":1,"la1":30.2991,"la2":30.254,"lo1":-89.0895,"lo2":-89.0444,"dy":0.0017,"dx":0.0017,"nx":28,"ny":28,"refTime":"2024-03-28T09:00:00:Z","depth":0,"parameterNumber":2,"parameterNumberName":"U-component_of_WINDS"},"data":[0,0,0,0,0,0,0,0,0,0,0,0,0,0,0,0,0,0,0,0,0,0,0,0,0,0,0,0,0,0,0,0,0,0,0,0,0,0,0,0,0,0,0,0,0,0,0,0,0,0,0,0,0,0,0,0,0,0,-0.1007,-0.1006,0,-0.0975,-0.0975,-0.0974,-0.0947,-0.0947,-0.0947,-0.0947,-0.0914,-0.0914,-0.0913,0,0,0,0,0,0,0,0,0,0,0,0,0,-0.1042,-0.1042,-0.1007,-0.1006,-0.1006,-0.0975,-0.0975,-0.0974,-0.0947,-0.0947,-0.0947,-0.0946,-0.0914,-0.0914,-0.0913,0,0,0,0,0,0,0,0,0,0,0,0,0,-0.102,-0.1042,-0.1007,-0.0989,-0.0987,-0.0975,-0.0975,-0.0974,-0.0948,-0.0947,-0.0947,-0.0946,-0.0915,-0.0914,-0.0913,-0.0917,0,0,-0.091,-0.091,0,0,0,0,0,0,0,0,-0.1022,-0.1019,-0.0992,-0.099,-0.0988,-0.0965,-0.0975,-0.0955,-0.0948,-0.0963,-0.0947,-0.0946,-0.0931,-0.0929,-0.0924,-0.0915,-0.0914,-0.091,-0.091,-0.0909,-0.0909,0,0,0,0,0,0,0,-0.1023,-0.102,-0.0994,-0.0991,-0.0989,-0.0982,-0.0978,-0.0971,-0.095,-0.0961,-0.0959,-0.0956,-0.093,-0.0925,-0.0923,-0.0913,-0.091,-0.0909,-0.0909,-0.0909,-0.0903,-0.0904,0,0,0,0,0,0,-0.1028,-0.1022,-0.0995,-0.0993,-0.1004,-0.0982,-0.0978,-0.0973,-0.095,-0.0946,-0.0956,-0.0955,-0.0927,-0.0924,-0.0922,-0.0924,-0.0909,-0.0908,-0.0908,-0.0903,-0.0904,-0.0904,0,0,0,0,0,0,-0.1028,-0.1025,-0.0996,-0.1007,-0.1003,-0.0981,-0.0976,-0.0972,-0.0967,-0.0946,-0.0942,-0.0955,-0.0926,-0.0923,-0.0918,-0.0922,-0.0908,-0.0907,-0.0903,-0.0903,-0.0904,-0.0928,0,0,0,0,0,0,-0.103,-0.1026,-0.1028,-0.1007,-0.1002,-0.0993,-0.0976,-0.0972,-0.0966,-0.0963,-0.0944,-0.094,-0.0926,-0.0919,-0.0917,-0.0921,-0.0907,-0.0902,-0.0903,-0.0904,-0.0927,-0.093,-0.0932,0,0,0,0,0,-0.1031,-0.1036,-0.1028,-0.1025,-0.1004,-0.0994,-0.0991,-0.0974,-0.0966,-0.0967,-0.0953,-0.0941,-0.0922,-0.0919,-0.0916,-0.092,-0.0902,-0.0903,-0.0904,-0.0926,-0.0929,-0.0932,0,0,0,0,0,0,-0.1058,-0.1033,-0.1024,-0.1023,-0.101,-0.0989,-0.099,-0.0978,-0.0968,-0.0966,-0.0946,-0.0942,-0.0938,-0.0928,-0.0925,-0.0921,-0.091,-0.091,-0.0928,-0.0931,-0.0933,-0.0936,-0.0906,0,0,0,0,0,-0.1064,-0.1058,-0.1036,-0.1037,-0.1032,-0.1012,-0.1007,-0.0995,-0.0981,-0.0976,-0.0962,-0.0949,-0.094,-0.0935,-0.0926,-0.0925,-0.092,-0.0926,-0.0928,-0.0931,-0.0931,-0.0929,-0.0931,-0.0907,-0.0907,-0.0907,0,0,-0.1076,-0.1062,-0.1059,-0.1042,-0.1031,-0.1025,-0.1008,-0.1002,-0.0997,-0.0975,-0.0969,-0.0958,-0.0942,-0.0939,-0.0937,-0.0931,-0.0937,-0.0932,-0.0934,-0.0933,-0.093,-0.0932,-0.0934,-0.0907,-0.0907,-0.0907,0,0,-0.1095,-0.1083,-0.1083,-0.1072,-0.1055,-0.1042,-0.1042,-0.1022,-0.1013,-0.1007,-0.099,-0.0983,-0.0968,-0.0957,-0.095,-0.0962,-0.095,-0.096,-0.0973,-0.0971,-0.0973,-0.0974,-0.0978,-0.098,-0.096,-0.0961,-0.0961,0,-0.1112,-0.1102,-0.1084,-0.1079,-0.1071,-0.105,-0.1049,-0.1039,-0.102,-0.1015,-0.1009,-0.0989,-0.0977,-0.097,-0.0973,-0.0968,-0.0966,-0.0962,-0.0974,-0.0975,-0.0977,-0.098,-0.0982,-0.0962,-0.0962,-0.0962,-0.0961,0,-0.1124,-0.1117,-0.1118,-0.11,-0.1093,-0.109,-0.107,-0.1064,-0.1052,-0.1039,-0.1032,-0.1016,-0.1003,-0.1,-0.0989,-0.0991,-0.0988,-0.0978,-0.0966,-0.0981,-0.0983,-0.0985,-0.0964,-0.0963,-0.0963,-0.0962,0,0,-0.116,-0.1131,-0.1132,-0.1123,-0.1102,-0.1096,-0.1091,-0.1078,-0.1073,-0.1061,-0.1056,-0.1043,-0.1032,-0.1024,-0.1011,-0.1009,-0.1019,-0.0999,-0.0998,-0.1003,-0.1019,-0.1027,-0.1029,-0.101,-0.101,-0.101,-0.102,0,-0.1176,-0.1166,-0.1148,-0.1144,-0.1137,-0.1116,-0.1112,-0.1098,-0.1086,-0.1077,-0.1063,-0.1054,-0.1042,-0.1036,-0.1033,-0.1018,-0.1022,-0.1017,-0.1005,-0.1004,-0.101,-0.1031,-0.1039,-0.105,-0.1022,-0.1022,-0.1022,0,-0.1193,-0.1181,-0.1176,-0.1155,-0.1151,-0.1148,-0.1133,-0.1125,-0.1109,-0.11,-0.1089,-0.1074,-0.1067,-0.1056,-0.1045,-0.1042,-0.1036,-0.1027,-0.1027,-0.1026,-0.1014,-0.103,-0.1053,-0.1054,-0.1023,-0.1023,-0.1023,0,-0.122,-0.1202,-0.1197,-0.119,-0.1165,-0.1163,-0.1152,-0.1135,-0.1127,-0.1114,-0.1109,-0.1095,-0.1088,-0.1077,-0.1059,-0.1052,-0.1049,-0.1037,-0.1041,-0.1041,-0.1042,-0.1042,-0.1065,-0.1038,-0.1038,-0.1038,-0.1038,0,-0.1239,-0.1237,-0.1208,-0.1205,-0.1202,-0.118,-0.1177,-0.1164,-0.1149,-0.1142,-0.1123,-0.1117,-0.1093,-0.1083,-0.1069,-0.1061,-0.1058,-0.105,-0.1046,-0.1052,-0.1053,-0.1048,-0.1046,-0.1038,-0.1038,-0.1038,-0.1038,0,-0.1269,-0.125,-0.1242,-0.1219,-0.1212,-0.1211,-0.119,-0.1186,-0.1171,-0.1162,-0.1159,-0.1136,-0.1124,-0.1104,-0.1086,-0.1076,-0.1072,-0.1065,-0.1077,-0.1075,-0.108,-0.108,-0.11,-0.1101,-0.1073,-0.1074,-0.1074,0,-0.1283,-0.128,-0.1256,-0.125,-0.124,-0.1231,-0.1223,-0.1201,-0.1193,-0.1173,-0.1171,-0.1157,-0.1145,-0.1127,-0.1108,-0.1094,-0.1087,-0.1095,-0.1085,-0.109,-0.1086,-0.1087,-0.1086,-0.1097,-0.1098,-0.1098,-0.1098,0,-0.1309,-0.1299,-0.1289,-0.1274,-0.1265,-0.1252,-0.1239,-0.1235,-0.121,-0.1202,-0.1189,-0.118,-0.1161,-0.1148,-0.113,-0.1118,-0.1104,-0.1101,-0.1101,-0.1107,-0.1114,-0.111,-0.1084,-0.1101,-0.1101,-0.1101,-0.1101,-0.11,-0.1331,-0.1327,-0.1309,-0.1298,-0.1285,-0.1272,-0.1267,-0.1251,-0.124,-0.1223,-0.121,-0.1198,-0.118,-0.1155,-0.1144,-0.1134,-0.1127,-0.1127,-0.1128,-0.1128,-0.113,-0.1116,-0.113,-0.113,-0.113,-0.113,-0.113,0,-0.1356,-0.1343,-0.1332,-0.1314,-0.1304,-0.1291,-0.1275,-0.1267,-0.1257,-0.1241,-0.1229,-0.1214,-0.12,-0.1179,-0.1164,-0.1159,-0.1152,-0.1156,-0.1156,-0.1153,-0.1137,-0.1138,-0.1162,-0.1162,-0.1162,-0.1162,-0.1162,-0.1162,-0.1368,-0.1361,-0.1349,-0.1335,-0.1321,-0.1309,-0.1301,-0.1289,-0.1276,-0.126,-0.1248,-0.1235,-0.1216,-0.1199,-0.1185,-0.1179,-0.1174,-0.118,-0.1172,-0.1157,-0.1155,-0.1152,-0.1153,-0.1179,-0.1179,-0.1189,-0.119,-0.119]},{"header":{"parameterUnit":"m.s-1","parameterCategory":1,"la1":30.2991,"la2":30.254,"lo1":-89.0895,"lo2":-89.0444,"dy":0.0017,"dx":0.0017,"nx":28,"ny":28,"refTime":"2024-03-28T09:00:00:Z","depth":0,"parameterNumber":3,"parameterNumberName":"V-component_of_WINDS"},"data":[0,0,0,0,0,0,0,0,0,0,0,0,0,0,0,0,0,0,0,0,0,0,0,0,0,0,0,0,0,0,0,0,0,0,0,0,0,0,0,0,0,0,0,0,0,0,0,0,0,0,0,0,0,0,0,0,0,0,-3.5282,-3.5283,0,-3.5376,-3.5377,-3.5378,-3.5374,-3.5373,-3.5371,-3.537,-3.5464,-3.5467,-3.5471,0,0,0,0,0,0,0,0,0,0,0,0,0,-3.5097,-3.5101,-3.5282,-3.5283,-3.5284,-3.5376,-3.5377,-3.5378,-3.5374,-3.5373,-3.5371,-3.537,-3.5462,-3.5467,-3.5471,0,0,0,0,0,0,0,0,0,0,0,0,0,-3.5183,-3.5102,-3.5282,-3.5293,-3.5295,-3.5375,-3.5377,-3.5379,-3.5375,-3.5373,-3.5371,-3.5369,-3.5461,-3.5466,-3.5472,-3.5545,0,0,-3.5489,-3.5491,0,0,0,0,0,0,0,0,-3.5178,-3.519,-3.5291,-3.5293,-3.5295,-3.5361,-3.5346,-3.5434,-3.5375,-3.5344,-3.537,-3.5368,-3.5431,-3.5439,-3.5461,-3.555,-3.5554,-3.5489,-3.5493,-3.5495,-3.5497,0,0,0,0,0,0,0,-3.5172,-3.5185,-3.5319,-3.5292,-3.5295,-3.5293,-3.5303,-3.5363,-3.5397,-3.5347,-3.5347,-3.5358,-3.5432,-3.5455,-3.5463,-3.5555,-3.5489,-3.5494,-3.5498,-3.55,-3.571,-3.5712,0,0,0,0,0,0,-3.5164,-3.5181,-3.5316,-3.5322,-3.5231,-3.5298,-3.5309,-3.5342,-3.5397,-3.5403,-3.536,-3.5358,-3.5447,-3.5456,-3.5466,-3.5556,-3.5495,-3.55,-3.5503,-3.5708,-3.571,-3.5713,0,0,0,0,0,0,-3.516,-3.5176,-3.5312,-3.5251,-3.5269,-3.5304,-3.534,-3.5345,-3.5368,-3.5407,-3.5413,-3.5378,-3.5446,-3.5458,-3.5526,-3.5559,-3.5503,-3.5508,-3.5705,-3.5708,-3.5712,-3.5737,0,0,0,0,0,0,-3.5155,-3.5175,-3.5203,-3.5252,-3.5272,-3.5371,-3.5342,-3.5348,-3.5378,-3.5376,-3.5425,-3.5431,-3.5445,-3.5518,-3.5532,-3.5566,-3.5512,-3.5702,-3.5707,-3.5711,-3.5733,-3.574,-3.5747,0,0,0,0,0,-3.5148,-3.5206,-3.5205,-3.5221,-3.5309,-3.5373,-3.5384,-3.54,-3.5381,-3.541,-3.5435,-3.5429,-3.5554,-3.5525,-3.554,-3.5577,-3.57,-3.5705,-3.571,-3.573,-3.5739,-3.5747,0,0,0,0,0,0,-3.5159,-3.5212,-3.5212,-3.5287,-3.5326,-3.5372,-3.5409,-3.5409,-3.5453,-3.545,-3.5467,-3.5477,-3.5545,-3.5568,-3.5535,-3.5651,-3.5624,-3.5633,-3.5634,-3.5643,-3.565,-3.5643,-3.5517,0,0,0,0,0,-3.5171,-3.5219,-3.5263,-3.5325,-3.5345,-3.5374,-3.5403,-3.5412,-3.5452,-3.5468,-3.5497,-3.5536,-3.5584,-3.5614,-3.566,-3.5736,-3.5747,-3.5769,-3.5776,-3.5782,-3.5788,-3.5831,-3.5841,-3.5729,-3.5729,-3.5729,0,0,-3.5194,-3.5229,-3.5259,-3.5329,-3.5359,-3.5409,-3.5387,-3.5441,-3.5477,-3.5475,-3.5542,-3.5565,-3.5609,-3.5681,-3.5714,-3.5702,-3.5822,-3.5788,-3.5792,-3.5796,-3.5837,-3.5847,-3.5857,-3.5733,-3.5732,-3.5732,0,0,-3.5262,-3.5294,-3.535,-3.5382,-3.5429,-3.5448,-3.5462,-3.5509,-3.5525,-3.5591,-3.5591,-3.5635,-3.5717,-3.5748,-3.5775,-3.5857,-3.5853,-3.5871,-3.5907,-3.5948,-3.5957,-3.5964,-3.5993,-3.6004,-3.5878,-3.5878,-3.5878,0,-3.5285,-3.5361,-3.5378,-3.5432,-3.5463,-3.5465,-3.5521,-3.5551,-3.561,-3.5631,-3.5617,-3.572,-3.575,-3.583,-3.585,-3.5871,-3.5887,-3.5865,-3.5954,-3.5962,-3.597,-3.5998,-3.6008,-3.588,-3.588,-3.5879,-3.5879,0,-3.5387,-3.5439,-3.5478,-3.5537,-3.5572,-3.5627,-3.5652,-3.5685,-3.5692,-3.5712,-3.578,-3.5816,-3.587,-3.589,-3.5896,-3.5971,-3.5962,-3.5951,-3.5924,-3.5982,-3.6008,-3.6019,-3.5882,-3.5882,-3.5881,-3.5881,0,0,-3.5463,-3.5533,-3.5547,-3.5574,-3.5627,-3.5667,-3.5722,-3.5776,-3.5804,-3.5845,-3.5891,-3.5961,-3.5952,-3.5982,-3.5992,-3.6028,-3.609,-3.6012,-3.6014,-3.6025,-3.6175,-3.6183,-3.6195,-3.6089,-3.6091,-3.6093,-3.6171,0,-3.5537,-3.5636,-3.5653,-3.5739,-3.5787,-3.5791,-3.5838,-3.5876,-3.5897,-3.594,-3.5963,-3.6012,-3.5996,-3.6015,-3.605,-3.6075,-3.612,-3.607,-3.6131,-3.6133,-3.612,-3.6209,-3.6217,-3.6289,-3.6182,-3.6183,-3.6185,0,-3.5636,-3.5681,-3.5772,-3.582,-3.5841,-3.5883,-3.5934,-3.5976,-3.6019,-3.6032,-3.6066,-3.6072,-3.6129,-3.61,-3.6178,-3.6143,-3.617,-3.6186,-3.6189,-3.6195,-3.6162,-3.6217,-3.6313,-3.6323,-3.6201,-3.62,-3.6199,0,-3.5682,-3.5766,-3.5832,-3.5855,-3.5912,-3.5942,-3.5967,-3.6008,-3.6039,-3.6083,-3.6104,-3.6154,-3.6181,-3.6219,-3.6238,-3.6216,-3.6315,-3.6288,-3.6327,-3.6326,-3.6347,-3.6345,-3.6448,-3.6364,-3.6364,-3.6364,-3.6364,0,-3.5762,-3.5818,-3.5853,-3.5893,-3.5956,-3.5975,-3.6036,-3.606,-3.6097,-3.6141,-3.6147,-3.6188,-3.6212,-3.6256,-3.6272,-3.6334,-3.6346,-3.6358,-3.6361,-3.6357,-3.6355,-3.6374,-3.6369,-3.6367,-3.6366,-3.6366,-3.6365,0,-3.5824,-3.5851,-3.5922,-3.5971,-3.5985,-3.6028,-3.607,-3.6109,-3.613,-3.6186,-3.62,-3.6233,-3.6287,-3.631,-3.6375,-3.6385,-3.6456,-3.6456,-3.6442,-3.6443,-3.6481,-3.6477,-3.6599,-3.6615,-3.6521,-3.6522,-3.6523,0,-3.5873,-3.5916,-3.597,-3.6001,-3.6028,-3.6077,-3.6109,-3.6131,-3.6164,-3.6217,-3.6249,-3.6303,-3.6347,-3.6431,-3.646,-3.651,-3.6511,-3.6551,-3.6518,-3.6513,-3.6511,-3.6508,-3.6513,-3.6556,-3.6557,-3.6558,-3.6558,0,-3.5957,-3.5969,-3.6016,-3.6068,-3.6107,-3.6149,-3.6189,-3.6214,-3.6242,-3.6279,-3.6334,-3.6368,-3.6436,-3.6488,-3.6541,-3.6565,-3.6566,-3.6568,-3.658,-3.6576,-3.6566,-3.6572,-3.6458,-3.6565,-3.6564,-3.6564,-3.6564,-3.6563,-3.6014,-3.6053,-3.6097,-3.615,-3.6183,-3.6222,-3.6261,-3.6288,-3.6334,-3.6391,-3.6401,-3.646,-3.6502,-3.6572,-3.6599,-3.6645,-3.6635,-3.6652,-3.6656,-3.666,-3.6662,-3.6559,-3.6654,-3.6654,-3.6654,-3.6654,-3.6654,0,-3.6098,-3.6128,-3.6176,-3.6234,-3.6275,-3.6274,-3.6319,-3.6354,-3.6406,-3.6446,-3.6489,-3.6553,-3.6604,-3.6638,-3.6691,-3.6721,-3.6722,-3.6734,-3.6731,-3.6737,-3.6668,-3.6652,-3.6731,-3.6731,-3.6731,-3.6731,-3.6731,-3.6731,-3.6147,-3.6212,-3.6229,-3.6311,-3.634,-3.6398,-3.6424,-3.6459,-3.6491,-3.6562,-3.6606,-3.6628,-3.6666,-3.6721,-3.6768,-3.6777,-3.6796,-3.6807,-3.6815,-3.675,-3.6742,-3.6734,-3.672,-3.6812,-3.6812,-3.6881,-3.6882,-3.6882]}]]